Hourly Data Report for July 14, 2021

TORONTO CITY CENTRE
ONTARIO
Current Station Operator: NAVCAN

43°37'39.000" N
79°23'46.000" W
76.80 m
6158359
71265
YTZ

Download Data

Hourly Data (July 2021)
Hourly Data Report for July 14, 2021
TIME
LST
Temp Definition
°C
Dew Point Definition
°C
Rel Hum Definition
%
Precip. Amount Definition
mm

Wind Dir Definition
10's deg

Wind Spd Definition
km/h
Visibility Definition
km
Stn Press Definition
kPa
Hmdx Definition


Wind Chill Definition


Weather Definition


00:00 20.7 19.7 94 1.5 25 9 16.1 100.66 28   LegendNANA
01:00 20.9 20.4 97 0.0 21 8 12.9 100.69 29   LegendNANA
02:00 21.0 20.1 95 0.0 25 17 16.1 100.69 29   LegendNANA
03:00 20.9 20.1 95 0.0 23 13 16.1 100.72 29   LegendNANA
04:00 21.0 20.2 95 0.0 24 13 16.1 100.73 29   LegendNANA
05:00 20.6 19.8 95 0.0 26 11 16.1 100.80 28   LegendNANA
06:00 21.6 19.2 86 0.0 27 13 16.1 100.85 29   LegendNANA
07:00 22.5 19.3 82 0.0 27 18 16.1 100.90 30   LegendNANA
08:00 23.1 19.9 82 0.0 25 11 16.1 100.92 31   LegendNANA
09:00 22.5 19.8 85 0.0 23 15 16.1 100.95 30   LegendNANA
10:00 23.5 20.2 81 0.0 20 17 16.1 100.95 31   LegendNANA
11:00 23.6 20.7 83 0.0 19 18 16.1 100.98 32   LegendNANA
12:00 24.0 21.2 84 0.0 17 21 16.1 100.99 33   LegendNANA
13:00 24.7 20.7 78 0.0 17 15 16.1 100.97 33   LegendNANA
14:00 25.1 20.7 76 0.0 17 13 16.1 100.96 33   LegendNANA
15:00 26.8 21.2 71 0.0 14 11 16.1 100.90 35   LegendNANA
16:00 25.4 21.2 77 0.0 17 13 16.1 100.88 34   LegendNANA
17:00 25.3 20.9 76 0.0 16 18 16.1 100.83 34   LegendNANA
18:00 24.0 20.9 82 0.0 18 15 16.1 100.86 32   LegendNANA
19:00 23.0 21.0 88 0.0 29 5 16.1 100.88 31   LegendNANA
20:00 22.1 20.8 92 0.0 27 9 16.1 100.88 30   LegendNANA
21:00 22.3 21.0 92 0.0   0 16.1 100.94 31   LegendNANA
22:00 21.6 19.9 90 0.0 26 8 16.1 100.90 29   LegendNANA
23:00 21.6 20.1 91 0.0 18 8 16.1 100.89 29   LegendNANA

Notes on Data Quality.

Legend

  • E = Estimated
  • M = Missing
  • NA = Not Available*
  • [empty] = Indicates an unobserved value
Date modified: